sat.trackr.live / text

‹ back to catalog

STARLINK-32469

NORAD 61721 · 2024-196Q

PAYLOAD ACTIVE UNKNOWN

§ Identity

Operator
Country
US
Launch date
2024-10-30
Launch site
AFETR
Launch vehicle
Mass (kg)
RCS (m²)

Purposes: comms

External: N2YO · Heavens-Above · Gunter

§ Orbital elements

Epoch: 2026-05-25T03:13:26.035968Z

Period
94.11 min
Inclination
53.1613°
Eccentricity
0.0001340
Mean motion
15.30189943 rev/d
Perigee alt
474.3 km
Apogee alt
476.2 km
Semi-major
6,853.4 km
B*
2.0369e-5
RAAN
106.0423°
Arg perigee
95.5742°
Mean anomaly
264.5412°
Rev number
8,886

§ Raw data

STARLINK-324691 61721U 24196Q   26145.13432912  .00000244  00000+0  20369-4 0  99952 61721  53.1613 106.0423 0001340  95.5742 264.5412 15.30189943 88861

JSON: /api/v1/satellites/61721 · /tle

For live sub-satellite position, see the globe view (requires WebGL).

§ Visibility from observer

Set your observer location to see the next 7 days of passes ≥ 10°. The values pass through the URL so the page stays shareable.

No JS? Fill the form by hand. The geolocation button needs JavaScript.